Skip Page Navigation
NASA JPL Caltech
NASA Logo - Jet Propulsion Laboratory + View the NASA Portal
+ Near-Earth Object (NEO) Program
Search JPL
JPL Home Earth Solar System Stars & Galaxies Technology
JPL Solar System Dynamics
BODIES ORBITS EPHEMERIDES TOOLS PHYSICAL DATA DISCOVERY FAQ SITE MAP
JPL Small-Body Database Browser
Search: [ help ]  
13222 Ichikawakazuo (1997 OV2)
Classification: Main-belt Asteroid          SPK-ID: 2013222
Ephemeris | Orbit Diagram | Orbital Elements | Physical Parameters | Discovery Circumstances | Close-Approach Data ]

[ show orbit diagram ]
Orbital Elements at Epoch 2457000.5 (2014-Dec-09.0) TDB
Reference: JPL 10 (heliocentric ecliptic J2000)
 Element Value Uncertainty (1-sigma)   Units 
e .05871939455423977 7.4084e-08  
a 2.731323423236978 2.7712e-08 AU
q 2.570941765492689 2.0336e-07 AU
i 9.523000551400015 7.2737e-06 deg
node 294.5676945365209 4.5917e-05 deg
peri 264.5436212398374 7.7779e-05 deg
M 58.95081447006968 6.2813e-05 deg
tp 2456730.511398351721
(2014-Mar-14.01139835)
0.00028793 JED
period 1648.762573801733
4.51
2.5092e-05
6.87e-08
d
yr
n .2183455675912806 3.3229e-09 deg/d
Q 2.891705080981267 2.9339e-08 AU
  Orbit Determination Parameters
   # obs. used (total)      761  
   data-arc span      7484 days (20.49 yr)  
   first obs. used      1995-01-02  
   last obs. used      2015-06-30  
   planetary ephem.      DE431  
   SB-pert. ephem.      SB431-BIG16  
   condition code      0  
   fit RMS      .52828  
   data source      ORB  
   producer      Otto Matic  
   solution date      2015-Jul-06 12:11:32  

Additional Information
 Earth MOID = 1.59203 AU 
 T_jup = 3.332 
[ show covariance matrix ]

Ephemeris | Orbit Diagram | Orbital Elements | Physical Parameters | Discovery Circumstances | Close-Approach Data ]

Physical Parameter Table
Parameter Symbol Value Units Sigma Reference Notes
absolute magnitude H 13.1 mag n/a MPO263467  

13222 Ichikawakazuo           Discovered 1997 July 27 by T. Okuni at Nanyo.
Kazuo Ichikawa (b. 1955) is a postman and the associate president of the Nanyo Astronomical Club since 1988.
NOTE: some special characters may not display properly (any characters within {} are an attempt to place the proper accent above a character)
Reference: 20040504/MPCPages.arcLast Updated: 2004-05-11

[ show close-approach data ]
Alternate Designations
 1997 OV2 = 1995 AF4 
Ephemeris | Orbit Diagram | Orbital Elements | Physical Parameters | Discovery Circumstances | Close-Approach Data ]
ABOUT SSD CREDITS/AWARDS PRIVACY/COPYRIGHT GLOSSARY LINKS
FirstGov 2015-Aug-01 16:13 UT
(server date/time)  
NASA Home Page
Site Manager:   Ryan S. Park
Webmaster  Alan B. Chamberlin